EAA4780 SBCH-SBNF

Flight info

Callsign EAA4780
Flight time 1h 23m
Altitude 7000
Route IMBIM DCT XODAM DCT UMGAD
Aircraft C208/L-SDFGR/C

Departure

Time 2026-05-04 03:39
Airport Serafin Enoss Bertaso Airport (SBCH)

Arrival

Time 2026-05-04 05:03
Airport Ministro Victor Konder International Airport (SBNF)
Time Latitude Longitude Altitude Speed Heading
2026-05-04 03:32 -27.13224 -52.66143 2124 ft 0 kts
2026-05-04 03:35 -27.13223 -52.66143 2124 ft 2 kts 12°
2026-05-04 03:35 -27.13241 -52.66106 2126 ft 12 kts 159°
2026-05-04 03:35 -27.13334 -52.66121 2127 ft 18 kts 220°
2026-05-04 03:36 -27.13343 -52.66253 2122 ft 19 kts 288°
2026-05-04 03:36 -27.13291 -52.66528 2115 ft 42 kts 280°
2026-05-04 03:36 -27.13244 -52.66798 2104 ft 17 kts 286°
2026-05-04 03:36 -27.13219 -52.66906 2100 ft 14 kts 248°
2026-05-04 03:37 -27.13294 -52.66922 2101 ft 11 kts 131°
2026-05-04 03:37 -27.13268 -52.66877 2102 ft 12 kts 27°
2026-05-04 03:37 -27.13247 -52.66809 2104 ft 0 kts 99°
2026-05-04 03:38 -27.13247 -52.66806 2104 ft 7 kts 98°
2026-05-04 03:38 -27.13293 -52.66482 2116 ft 74 kts 99°
2026-05-04 03:39 -27.13403 -52.65740 2171 ft 111 kts 98°
2026-05-04 03:39 -27.13457 -52.64801 2267 ft 131 kts 90°
2026-05-04 03:39 -27.13444 -52.63742 2489 ft 133 kts 86°
2026-05-04 03:39 -27.13403 -52.62736 2898 ft 126 kts 82°
2026-05-04 03:40 -27.13346 -52.61787 3307 ft 119 kts 77°
2026-05-04 03:40 -27.13272 -52.60887 3694 ft 113 kts 76°
2026-05-04 03:40 -27.13184 -52.60026 4091 ft 110 kts 72°
2026-05-04 03:40 -27.13074 -52.59194 4485 ft 106 kts 68°
2026-05-04 03:41 -27.12944 -52.58395 4873 ft 102 kts 63°
2026-05-04 03:41 -27.12971 -52.57570 5244 ft 106 kts 81°
2026-05-04 03:41 -27.12978 -52.56784 5629 ft 98 kts 75°
2026-05-04 03:41 -27.12969 -52.56034 6007 ft 93 kts 74°
2026-05-04 03:42 -27.12956 -52.55295 6243 ft 102 kts 77°
2026-05-04 03:42 -27.12928 -52.54448 6424 ft 112 kts 75°
2026-05-04 03:42 -27.12883 -52.53558 6696 ft 116 kts 76°
2026-05-04 03:42 -27.12871 -52.52635 6973 ft 122 kts 85°
2026-05-04 03:43 -27.12909 -52.51665 7168 ft 132 kts 84°
2026-05-04 03:43 -27.12937 -52.50544 7171 ft 152 kts 85°
2026-05-04 03:43 -27.12951 -52.49336 7168 ft 162 kts 84°
2026-05-04 03:43 -27.12953 -52.48050 7165 ft 169 kts 84°
2026-05-04 03:44 -27.12946 -52.46713 7163 ft 173 kts 84°
2026-05-04 03:44 -27.12934 -52.45357 7167 ft 174 kts 84°
2026-05-04 03:44 -27.12920 -52.43981 7160 ft 178 kts 84°
2026-05-04 03:44 -27.12904 -52.42596 7163 ft 177 kts 84°
2026-05-04 03:45 -27.12886 -52.41212 7137 ft 178 kts 84°
2026-05-04 03:45 -27.12868 -52.39820 7139 ft 179 kts 84°
2026-05-04 03:45 -27.12847 -52.38418 7140 ft 180 kts 84°
2026-05-04 03:45 -27.12827 -52.37010 7141 ft 180 kts 84°
2026-05-04 03:46 -27.12812 -52.35603 7139 ft 181 kts 84°
2026-05-04 03:46 -27.12787 -52.34195 7128 ft 178 kts 84°
2026-05-04 03:46 -27.12739 -52.32834 7129 ft 173 kts 82°
2026-05-04 03:46 -27.12718 -52.31482 7122 ft 174 kts 84°
2026-05-04 03:47 -27.12708 -52.30118 7133 ft 175 kts 84°
2026-05-04 03:47 -27.12696 -52.28742 7132 ft 177 kts 84°
2026-05-04 03:47 -27.12675 -52.27357 7139 ft 179 kts 84°
2026-05-04 03:47 -27.12653 -52.25956 7138 ft 180 kts 84°
2026-05-04 03:48 -27.12631 -52.24556 7143 ft 179 kts 84°
2026-05-04 03:48 -27.12610 -52.23154 7139 ft 179 kts 84°
2026-05-04 03:48 -27.12587 -52.21757 7144 ft 179 kts 84°
2026-05-04 03:48 -27.12564 -52.20361 7145 ft 179 kts 84°
2026-05-04 03:49 -27.12541 -52.18963 7140 ft 180 kts 84°
2026-05-04 03:49 -27.12519 -52.17580 7146 ft 180 kts 84°
2026-05-04 03:49 -27.12493 -52.16173 7146 ft 181 kts 84°
2026-05-04 03:49 -27.12462 -52.14768 7146 ft 180 kts 83°
2026-05-04 03:50 -27.12418 -52.13364 7146 ft 180 kts 83°
2026-05-04 03:50 -27.12374 -52.11960 7144 ft 180 kts 83°
2026-05-04 03:50 -27.12328 -52.10558 7144 ft 179 kts 83°
2026-05-04 03:50 -27.12280 -52.09164 7143 ft 179 kts 83°
2026-05-04 03:51 -27.12230 -52.07770 7140 ft 179 kts 83°
2026-05-04 03:51 -27.12176 -52.06379 7142 ft 178 kts 82°
2026-05-04 03:51 -27.12127 -52.04992 7142 ft 178 kts 83°
2026-05-04 03:51 -27.12079 -52.03598 7142 ft 179 kts 83°
2026-05-04 03:52 -27.12033 -52.02200 7143 ft 180 kts 83°
2026-05-04 03:52 -27.11988 -52.00797 7148 ft 180 kts 83°
2026-05-04 03:52 -27.11938 -51.99390 7144 ft 180 kts 83°
2026-05-04 03:52 -27.11882 -51.97985 7152 ft 180 kts 83°
2026-05-04 03:53 -27.11828 -51.96580 7146 ft 180 kts 83°
2026-05-04 03:53 -27.11775 -51.95171 7150 ft 181 kts 83°
2026-05-04 03:53 -27.11720 -51.93756 7154 ft 182 kts 83°
2026-05-04 03:53 -27.11663 -51.92340 7153 ft 181 kts 83°
2026-05-04 03:54 -27.11607 -51.90927 7151 ft 181 kts 83°
2026-05-04 03:54 -27.11548 -51.89531 7142 ft 178 kts 83°
2026-05-04 03:54 -27.11486 -51.88136 7140 ft 180 kts 83°
2026-05-04 03:54 -27.11426 -51.86740 7151 ft 179 kts 83°
2026-05-04 03:55 -27.11366 -51.85336 7152 ft 181 kts 83°
2026-05-04 03:55 -27.11303 -51.83926 7143 ft 180 kts 83°
2026-05-04 03:55 -27.11236 -51.82532 7151 ft 179 kts 83°
2026-05-04 03:55 -27.11167 -51.81146 7159 ft 179 kts 82°
2026-05-04 03:56 -27.11098 -51.79746 7155 ft 180 kts 83°
2026-05-04 03:56 -27.11036 -51.78344 7149 ft 179 kts 83°
2026-05-04 03:56 -27.10972 -51.76945 7158 ft 180 kts 83°
2026-05-04 03:56 -27.10903 -51.75538 7155 ft 181 kts 83°
2026-05-04 03:57 -27.10832 -51.74128 7158 ft 181 kts 83°
2026-05-04 03:57 -27.10760 -51.72717 7153 ft 181 kts 83°
2026-05-04 03:57 -27.10692 -51.71312 7156 ft 180 kts 82°
2026-05-04 03:57 -27.10620 -51.69909 7161 ft 181 kts 83°
2026-05-04 03:58 -27.10478 -51.67091 7158 ft 180 kts 83°
2026-05-04 03:58 -27.10405 -51.65687 7166 ft 182 kts 83°
2026-05-04 03:58 -27.10332 -51.64268 7167 ft 182 kts 83°
2026-05-04 03:59 -27.10256 -51.62859 7165 ft 179 kts 83°
2026-05-04 03:59 -27.10179 -51.61481 7160 ft 179 kts 83°
2026-05-04 03:59 -27.10107 -51.60079 7161 ft 180 kts 82°
2026-05-04 03:59 -27.10034 -51.58671 7162 ft 181 kts 83°
2026-05-04 04:00 -27.09961 -51.57266 7164 ft 180 kts 83°
2026-05-04 04:00 -27.09885 -51.55866 7164 ft 179 kts 82°
2026-05-04 04:00 -27.09809 -51.54473 7166 ft 179 kts 83°
2026-05-04 04:00 -27.09744 -51.53076 7162 ft 179 kts 83°
2026-05-04 04:01 -27.09679 -51.51681 7167 ft 180 kts 83°
2026-05-04 04:01 -27.09610 -51.50278 7169 ft 180 kts 83°
2026-05-04 04:01 -27.09538 -51.48868 7171 ft 181 kts 82°
2026-05-04 04:01 -27.09464 -51.47454 7173 ft 182 kts 82°
2026-05-04 04:02 -27.09390 -51.46034 7173 ft 182 kts 83°
2026-05-04 04:02 -27.09317 -51.44624 7170 ft 180 kts 83°
2026-05-04 04:02 -27.09248 -51.43225 7172 ft 180 kts 81°
2026-05-04 04:02 -27.09177 -51.41823 7169 ft 181 kts 82°
2026-05-04 04:03 -27.09104 -51.40424 7170 ft 178 kts 83°
2026-05-04 04:03 -27.09033 -51.39035 7170 ft 178 kts 82°
2026-05-04 04:03 -27.08963 -51.37650 7173 ft 178 kts 82°
2026-05-04 04:03 -27.08896 -51.36259 7174 ft 179 kts 82°
2026-05-04 04:04 -27.08825 -51.34873 7175 ft 177 kts 82°
2026-05-04 04:04 -27.08751 -51.33500 7176 ft 176 kts 83°
2026-05-04 04:04 -27.08678 -51.32126 7171 ft 177 kts 82°
2026-05-04 04:04 -27.08608 -51.30750 7180 ft 176 kts 83°
2026-05-04 04:05 -27.08540 -51.29375 7180 ft 176 kts 82°
2026-05-04 04:05 -27.08471 -51.28019 7175 ft 177 kts 83°
2026-05-04 04:05 -27.08398 -51.26655 7179 ft 173 kts 82°
2026-05-04 04:05 -27.08327 -51.25305 7177 ft 173 kts 82°
2026-05-04 04:06 -27.08261 -51.23955 7184 ft 174 kts 82°
2026-05-04 04:06 -27.08195 -51.22593 7179 ft 175 kts 83°
2026-05-04 04:06 -27.08121 -51.21232 7182 ft 175 kts 82°
2026-05-04 04:06 -27.08049 -51.19866 7187 ft 176 kts 83°
2026-05-04 04:07 -27.07980 -51.18485 7193 ft 178 kts 82°
2026-05-04 04:07 -27.07910 -51.17097 7192 ft 177 kts 82°
2026-05-04 04:07 -27.07847 -51.15732 7182 ft 173 kts 83°
2026-05-04 04:07 -27.07777 -51.14391 7187 ft 173 kts 82°
2026-05-04 04:08 -27.07708 -51.13035 7185 ft 175 kts 82°
2026-05-04 04:08 -27.07644 -51.11667 7194 ft 176 kts 82°
2026-05-04 04:08 -27.07579 -51.10296 7190 ft 175 kts 82°
2026-05-04 04:08 -27.07511 -51.08934 7197 ft 175 kts 82°
2026-05-04 04:09 -27.07439 -51.07571 7196 ft 175 kts 82°
2026-05-04 04:09 -27.07362 -51.06206 7194 ft 175 kts 82°
2026-05-04 04:09 -27.07291 -51.04838 7191 ft 176 kts 83°
2026-05-04 04:09 -27.07218 -51.03479 7193 ft 177 kts 82°
2026-05-04 04:10 -27.07137 -51.02103 7196 ft 177 kts 82°
2026-05-04 04:10 -27.07055 -51.00726 7198 ft 177 kts 83°
2026-05-04 04:10 -27.06968 -50.99327 7200 ft 177 kts 82°
2026-05-04 04:10 -27.06889 -50.97964 7199 ft 177 kts 82°
2026-05-04 04:11 -27.06807 -50.96586 7200 ft 177 kts 82°
2026-05-04 04:11 -27.06716 -50.95208 7200 ft 177 kts 82°
2026-05-04 04:11 -27.06626 -50.93832 7204 ft 177 kts 82°
2026-05-04 04:11 -27.06542 -50.92455 7200 ft 177 kts 82°
2026-05-04 04:12 -27.06455 -50.91088 7203 ft 175 kts 82°
2026-05-04 04:12 -27.06366 -50.89724 7198 ft 176 kts 82°
2026-05-04 04:12 -27.06278 -50.88356 7202 ft 176 kts 82°
2026-05-04 04:12 -27.06189 -50.86992 7197 ft 174 kts 82°
2026-05-04 04:13 -27.06101 -50.85636 7203 ft 175 kts 82°
2026-05-04 04:13 -27.06010 -50.84274 7201 ft 175 kts 82°
2026-05-04 04:13 -27.05919 -50.82909 7200 ft 175 kts 82°
2026-05-04 04:13 -27.05828 -50.81547 7201 ft 175 kts 82°
2026-05-04 04:14 -27.05734 -50.80183 7201 ft 176 kts 82°
2026-05-04 04:14 -27.05638 -50.78817 7200 ft 175 kts 82°
2026-05-04 04:14 -27.05538 -50.77451 7202 ft 176 kts 82°
2026-05-04 04:14 -27.05441 -50.76081 7203 ft 177 kts 82°
2026-05-04 04:15 -27.05341 -50.74704 7208 ft 177 kts 82°
2026-05-04 04:15 -27.05234 -50.73328 7207 ft 176 kts 82°
2026-05-04 04:15 -27.05128 -50.71957 7206 ft 176 kts 82°
2026-05-04 04:15 -27.05023 -50.70585 7208 ft 177 kts 82°
2026-05-04 04:16 -27.04917 -50.69209 7213 ft 177 kts 82°
2026-05-04 04:16 -27.04809 -50.67829 7212 ft 177 kts 82°
2026-05-04 04:16 -27.04699 -50.66449 7212 ft 177 kts 82°
2026-05-04 04:16 -27.04591 -50.65070 7212 ft 177 kts 82°
2026-05-04 04:17 -27.04484 -50.63694 7215 ft 177 kts 82°
2026-05-04 04:17 -27.04371 -50.62317 7215 ft 178 kts 82°
2026-05-04 04:17 -27.04259 -50.60938 7214 ft 177 kts 82°
2026-05-04 04:17 -27.04150 -50.59559 7212 ft 177 kts 82°
2026-05-04 04:18 -27.04035 -50.58181 7213 ft 178 kts 82°
2026-05-04 04:18 -27.03921 -50.56817 7218 ft 178 kts 82°
2026-05-04 04:18 -27.03803 -50.55435 7220 ft 178 kts 82°
2026-05-04 04:18 -27.03685 -50.54033 7212 ft 178 kts 82°
2026-05-04 04:19 -27.03572 -50.52674 7214 ft 177 kts 82°
2026-05-04 04:19 -27.03457 -50.51297 7219 ft 177 kts 82°
2026-05-04 04:19 -27.03342 -50.49922 7214 ft 177 kts 82°
2026-05-04 04:19 -27.03229 -50.48545 7217 ft 177 kts 82°
2026-05-04 04:20 -27.03115 -50.47167 7214 ft 178 kts 82°
2026-05-04 04:20 -27.03003 -50.45789 7216 ft 177 kts 82°
2026-05-04 04:20 -27.02888 -50.44410 7218 ft 177 kts 82°
2026-05-04 04:20 -27.02772 -50.43028 7218 ft 178 kts 82°
2026-05-04 04:21 -27.02656 -50.41650 7219 ft 177 kts 82°
2026-05-04 04:21 -27.02540 -50.40273 7222 ft 178 kts 82°
2026-05-04 04:21 -27.02421 -50.38891 7222 ft 178 kts 82°
2026-05-04 04:21 -27.02308 -50.37516 7217 ft 177 kts 82°
2026-05-04 04:22 -27.02193 -50.36147 7223 ft 176 kts 82°
2026-05-04 04:22 -27.02075 -50.34776 7225 ft 177 kts 82°
2026-05-04 04:22 -27.01960 -50.33394 7225 ft 178 kts 82°
2026-05-04 04:22 -27.01845 -50.32013 7224 ft 178 kts 82°
2026-05-04 04:23 -27.01729 -50.30630 7226 ft 178 kts 82°
2026-05-04 04:23 -27.01611 -50.29244 7231 ft 179 kts 82°
2026-05-04 04:23 -27.01485 -50.27856 7236 ft 178 kts 82°
2026-05-04 04:23 -27.01358 -50.26484 7227 ft 176 kts 82°
2026-05-04 04:24 -27.01277 -50.25580 7228 ft 176 kts 82°
2026-05-04 04:24 -27.01153 -50.24213 7230 ft 176 kts 82°
2026-05-04 04:24 -27.01027 -50.22844 7233 ft 176 kts 82°
2026-05-04 04:24 -27.00857 -50.21042 7226 ft 175 kts 82°
2026-05-04 04:25 -27.00733 -50.19686 7231 ft 175 kts 82°
2026-05-04 04:25 -27.00611 -50.18321 7229 ft 176 kts 82°
2026-05-04 04:25 -27.00485 -50.16962 7230 ft 175 kts 82°
2026-05-04 04:25 -27.00398 -50.16043 7230 ft 176 kts 82°
2026-05-04 04:26 -27.00274 -50.14675 7234 ft 177 kts 82°
2026-05-04 04:26 -27.00147 -50.13305 7236 ft 177 kts 82°
2026-05-04 04:26 -27.00019 -50.11933 7230 ft 177 kts 82°
2026-05-04 04:26 -26.99892 -50.10582 7234 ft 177 kts 82°
2026-05-04 04:27 -26.99762 -50.09207 7236 ft 177 kts 82°
2026-05-04 04:27 -26.99634 -50.07833 7235 ft 177 kts 82°
2026-05-04 04:27 -26.99508 -50.06467 7235 ft 176 kts 82°
2026-05-04 04:27 -26.99380 -50.05103 7232 ft 176 kts 82°
2026-05-04 04:28 -26.99252 -50.03743 7230 ft 175 kts 82°
2026-05-04 04:28 -26.99122 -50.02383 7231 ft 176 kts 82°
2026-05-04 04:28 -26.98990 -50.01023 7233 ft 176 kts 82°
2026-05-04 04:28 -26.98857 -49.99655 7233 ft 177 kts 82°
2026-05-04 04:29 -26.98720 -49.98282 7235 ft 177 kts 82°
2026-05-04 04:29 -26.98580 -49.96910 7235 ft 177 kts 82°
2026-05-04 04:29 -26.98443 -49.95535 7237 ft 178 kts 82°
2026-05-04 04:29 -26.98302 -49.94161 7235 ft 177 kts 81°
2026-05-04 04:30 -26.98159 -49.92787 7236 ft 177 kts 82°
2026-05-04 04:30 -26.98016 -49.91415 7236 ft 177 kts 82°
2026-05-04 04:30 -26.97873 -49.90037 7234 ft 178 kts 82°
2026-05-04 04:30 -26.97728 -49.88661 7233 ft 177 kts 82°
2026-05-04 04:31 -26.97580 -49.87292 7237 ft 177 kts 82°
2026-05-04 04:31 -26.97434 -49.85922 7240 ft 177 kts 82°
2026-05-04 04:31 -26.97287 -49.84549 7237 ft 177 kts 82°
2026-05-04 04:31 -26.97141 -49.83180 7235 ft 177 kts 82°
2026-05-04 04:32 -26.96995 -49.81814 7234 ft 177 kts 82°
2026-05-04 04:32 -26.96846 -49.80447 7235 ft 176 kts 81°
2026-05-04 04:32 -26.96700 -49.79081 7232 ft 177 kts 82°
2026-05-04 04:32 -26.96552 -49.77714 7235 ft 177 kts 82°
2026-05-04 04:33 -26.96402 -49.76342 7242 ft 177 kts 82°
2026-05-04 04:33 -26.96254 -49.74970 7242 ft 177 kts 82°
2026-05-04 04:33 -26.96102 -49.73598 7241 ft 177 kts 82°
2026-05-04 04:33 -26.95952 -49.72245 7241 ft 177 kts 82°
2026-05-04 04:34 -26.95799 -49.70874 7244 ft 178 kts 82°
2026-05-04 04:34 -26.95646 -49.69495 7245 ft 179 kts 82°
2026-05-04 04:34 -26.95489 -49.68114 7242 ft 178 kts 82°
2026-05-04 04:34 -26.95331 -49.66737 7245 ft 178 kts 82°
2026-05-04 04:35 -26.95174 -49.65363 7245 ft 178 kts 82°
2026-05-04 04:35 -26.95015 -49.63989 7240 ft 177 kts 82°
2026-05-04 04:35 -26.94854 -49.62621 7241 ft 178 kts 81°
2026-05-04 04:35 -26.94694 -49.61246 7239 ft 178 kts 82°
2026-05-04 04:36 -26.94525 -49.59874 7241 ft 178 kts 81°
2026-05-04 04:36 -26.94357 -49.58499 7243 ft 179 kts 82°
2026-05-04 04:36 -26.94192 -49.57115 7245 ft 179 kts 82°
2026-05-04 04:36 -26.94027 -49.55734 7243 ft 179 kts 81°
2026-05-04 04:37 -26.93535 -49.51624 7239 ft 177 kts 82°
2026-05-04 04:37 -26.93371 -49.50259 7238 ft 176 kts 81°
2026-05-04 04:38 -26.93203 -49.48896 7235 ft 177 kts 81°
2026-05-04 04:38 -26.93034 -49.47530 7234 ft 177 kts 81°
2026-05-04 04:38 -26.92866 -49.46163 7234 ft 177 kts 81°
2026-05-04 04:38 -26.92698 -49.44794 7235 ft 178 kts 81°
2026-05-04 04:39 -26.92529 -49.43422 7231 ft 177 kts 81°
2026-05-04 04:39 -26.92360 -49.42061 7239 ft 176 kts 82°
2026-05-04 04:39 -26.92190 -49.40695 7236 ft 178 kts 81°
2026-05-04 04:39 -26.92020 -49.39321 7240 ft 178 kts 82°
2026-05-04 04:40 -26.91847 -49.37946 7239 ft 179 kts 81°
2026-05-04 04:40 -26.91673 -49.36564 7243 ft 179 kts 81°
2026-05-04 04:40 -26.91498 -49.35178 7247 ft 181 kts 81°
2026-05-04 04:40 -26.91321 -49.33781 7245 ft 180 kts 81°
2026-05-04 04:41 -26.91148 -49.32391 7240 ft 180 kts 82°
2026-05-04 04:41 -26.91049 -49.30995 7240 ft 180 kts 86°
2026-05-04 04:41 -26.90973 -49.29594 7239 ft 180 kts 86°
2026-05-04 04:41 -26.90897 -49.28203 7240 ft 178 kts 86°
2026-05-04 04:42 -26.90820 -49.26832 7234 ft 179 kts 86°
2026-05-04 04:42 -26.90741 -49.25439 7234 ft 179 kts 86°
2026-05-04 04:42 -26.90661 -49.24045 7235 ft 179 kts 86°
2026-05-04 04:42 -26.90581 -49.22651 7232 ft 179 kts 86°
2026-05-04 04:43 -26.90499 -49.21256 7226 ft 179 kts 86°
2026-05-04 04:43 -26.90418 -49.19863 7227 ft 179 kts 86°
2026-05-04 04:43 -26.90336 -49.18466 7231 ft 180 kts 86°
2026-05-04 04:43 -26.90252 -49.17065 7225 ft 180 kts 86°
2026-05-04 04:44 -26.90167 -49.15665 7228 ft 180 kts 86°
2026-05-04 04:44 -26.90078 -49.14269 7231 ft 180 kts 86°
2026-05-04 04:44 -26.89991 -49.12870 7229 ft 180 kts 86°
2026-05-04 04:44 -26.89903 -49.11467 7228 ft 181 kts 86°
2026-05-04 04:45 -26.89814 -49.10063 7227 ft 180 kts 86°
2026-05-04 04:45 -26.89725 -49.08661 7230 ft 180 kts 86°
2026-05-04 04:45 -26.89666 -49.07254 7235 ft 181 kts 86°
2026-05-04 04:47 -26.89536 -48.98685 7000 ft 181 kts 86°
2026-05-04 04:47 -26.89519 -48.97278 6995 ft 180 kts 86°
2026-05-04 04:47 -26.89503 -48.95880 6991 ft 179 kts 86°
2026-05-04 04:47 -26.89484 -48.94487 6989 ft 179 kts 86°
2026-05-04 04:48 -26.89469 -48.93096 6988 ft 178 kts 87°
2026-05-04 04:49 -26.89398 -48.87545 6986 ft 178 kts 86°
2026-05-04 04:49 -26.89380 -48.86156 6989 ft 178 kts 86°
2026-05-04 04:49 -26.89362 -48.84766 6991 ft 178 kts 86°
2026-05-04 04:49 -26.89343 -48.83377 6989 ft 179 kts 86°
2026-05-04 04:50 -26.89324 -48.82002 6990 ft 179 kts 86°
2026-05-04 04:50 -26.89305 -48.80603 6991 ft 179 kts 86°
2026-05-04 04:50 -26.89287 -48.79208 6990 ft 179 kts 86°
2026-05-04 04:50 -26.89269 -48.77815 6989 ft 179 kts 86°
2026-05-04 04:51 -26.89249 -48.76423 6989 ft 179 kts 86°
2026-05-04 04:51 -26.89230 -48.75031 6987 ft 179 kts 86°
2026-05-04 04:51 -26.89214 -48.73638 6986 ft 178 kts 86°
2026-05-04 04:51 -26.89198 -48.72249 6982 ft 178 kts 86°
2026-05-04 04:52 -26.89181 -48.70863 6982 ft 178 kts 86°
2026-05-04 04:52 -26.89162 -48.69478 6983 ft 178 kts 86°
2026-05-04 04:52 -26.89145 -48.68096 6981 ft 177 kts 86°
2026-05-04 04:52 -26.89130 -48.66715 6982 ft 177 kts 86°
2026-05-04 04:53 -26.89114 -48.65332 6984 ft 177 kts 86°
2026-05-04 04:53 -26.89097 -48.63941 6890 ft 183 kts 86°
2026-05-04 04:53 -26.89090 -48.62555 6713 ft 169 kts 86°
2026-05-04 04:53 -26.89091 -48.61281 6494 ft 160 kts 86°
2026-05-04 04:54 -26.89098 -48.60054 6237 ft 155 kts 86°
2026-05-04 04:54 -26.89110 -48.58855 5984 ft 153 kts 86°
2026-05-04 04:54 -26.89124 -48.57671 5732 ft 151 kts 86°
2026-05-04 04:54 -26.89139 -48.56506 5481 ft 148 kts 86°
2026-05-04 04:55 -26.89157 -48.55359 5235 ft 146 kts 86°
2026-05-04 04:55 -26.89177 -48.54232 4987 ft 144 kts 86°
2026-05-04 04:55 -26.89199 -48.53115 4738 ft 143 kts 86°
2026-05-04 04:55 -26.89214 -48.52004 4485 ft 143 kts 86°
2026-05-04 04:56 -26.89224 -48.50891 4230 ft 142 kts 86°
2026-05-04 04:56 -26.89131 -48.49807 3974 ft 138 kts 71°
2026-05-04 04:56 -26.88753 -48.48833 3723 ft 136 kts 62°
2026-05-04 04:56 -26.88309 -48.47912 3469 ft 133 kts 45°
2026-05-04 04:57 -26.87567 -48.47312 3211 ft 132 kts 24°
2026-05-04 04:57 -26.86675 -48.47138 2950 ft 133 kts 352°
2026-05-04 04:57 -26.85861 -48.47640 2691 ft 137 kts 321°
2026-05-04 04:57 -26.85488 -48.48616 2416 ft 143 kts 272°
2026-05-04 04:58 -26.85600 -48.49704 2168 ft 139 kts 266°
2026-05-04 04:58 -26.85717 -48.50732 2074 ft 128 kts 265°
2026-05-04 04:58 -26.85824 -48.51670 2070 ft 116 kts 265°
2026-05-04 04:58 -26.85871 -48.52545 2069 ft 110 kts 273°
2026-05-04 04:59 -26.85827 -48.53368 2075 ft 104 kts 281°
2026-05-04 04:59 -26.85752 -48.54165 2069 ft 101 kts 279°
2026-05-04 04:59 -26.85683 -48.54941 2078 ft 97 kts 279°
2026-05-04 04:59 -26.85620 -48.55642 2088 ft 86 kts 279°
2026-05-04 05:00 -26.85568 -48.56302 2080 ft 86 kts 278°
2026-05-04 05:00 -26.85511 -48.56959 2078 ft 84 kts 279°
2026-05-04 05:00 -26.85552 -48.58303 1959 ft 98 kts 262°
2026-05-04 05:01 -26.85661 -48.59064 1880 ft 102 kts 263°
2026-05-04 05:01 -26.85832 -48.59855 1711 ft 116 kts 263°
2026-05-04 05:01 -26.86015 -48.60766 1395 ft 123 kts 256°
2026-05-04 05:01 -26.86286 -48.61661 1019 ft 119 kts 252°
2026-05-04 05:02 -26.86544 -48.62481 673 ft 98 kts 255°
2026-05-04 05:02 -26.86790 -48.63126 326 ft 84 kts 239°
2026-05-04 05:02 -26.87087 -48.63665 200 ft 82 kts 237°
2026-05-04 05:02 -26.87403 -48.64195 90 ft 79 kts 235°
2026-05-04 05:03 -26.87667 -48.64629 28 ft 57 kts 239°
2026-05-04 05:03 -26.87822 -48.64887 27 ft 13 kts 218°
2026-05-04 05:04 -26.87949 -48.64884 28 ft 9 kts 183°
2026-05-04 05:04 -26.87971 -48.64873 26 ft 0 kts 144°